• Join FlightAware (Why Join?)
  • Login
  • US Flag 
10:31AM EST


 

Airport Tracker/Info


-or-


 

Live Flight TrackerFlight Track Log ✈ AMF1324 ✈ 18-Mar-2014 ✈ KBGM - KBUF

Flight Track Log - Related Links

Times and Time Zones

All times are in EDT time to prevent confusion due to time zone crossing. See the AMF1324 flight status page for this flight to view local times or setup timezone preferences in your user account.

Time Position Orientation Groundspeed Altitude Reporting Facility
EDT Latitude Longitude Course Direction KTS MPH feet Rate Location/Type
08:04AM 42.1708 -75.9656 298° West 176 203 5,400  Level Cleveland Center
08:05AM 42.1953 -76.0272 298° West 199 229 8,300 2,829 Climbing Cleveland Center
08:06AM 42.2264 -76.0953 302° West 183 211 11,200 1,854 Climbing Cleveland Center
08:07AM 42.2508 -76.1614 297° West 190 219 12,100 435 Climbing Cleveland Center
08:08AM 42.2761 -76.2428 293° West 230 265 12,100  Level Cleveland Center
08:09AM 42.3047 -76.3225 296° West 234 269 12,100  Level Cleveland Center
08:10AM 42.3308 -76.4006 294° West 235 270 12,100  Level Cleveland Center
08:11AM 42.3653 -76.4953 296° West 235 270 12,100  Level Cleveland Center
08:13AM 42.3936 -76.5750 296° West 235 270 12,100  Level Cleveland Center
08:14AM 42.4231 -76.6558 296° West 236 272 12,100  Level Cleveland Center
08:15AM 42.4522 -76.7353 296° West 238 274 12,100  Level Cleveland Center
08:16AM 42.4814 -76.8156 296° West 238 274 12,100  Level Cleveland Center
08:17AM 42.5117 -76.8947 297° West 238 274 12,100 -48 Level Cleveland Center
08:18AM 42.5478 -76.9892 297° West 238 274 12,000  Descending Cleveland Center
08:19AM 42.5764 -77.0697 296° West 238 274 12,100  Climbing Cleveland Center
08:20AM 42.6042 -77.1517 295° West 239 275 12,000  Descending Cleveland Center
08:21AM 42.6319 -77.2319 295° West 236 272 12,100 97 Climbing Cleveland Center
08:21AM 42.6328 -77.2311 36° Northeast 238 274 12,100 -140 Level Cleveland Center
08:21AM 42.6544 -77.2836 299° West 236 272 12,000  Descending Cleveland Center
08:22AM 42.6642 -77.3078 299° West 237 273 12,100 100 Climbing Cleveland Center
08:22AM 42.6858 -77.3636 298° West 235 270 12,100  Level Cleveland Center
08:23AM 42.7008 -77.4017 298° West 237 273 12,100  Level Cleveland Center
08:23AM 42.7139 -77.4342 299° West 234 269 12,100  Level Cleveland Center
08:24AM 42.7333 -77.4781 301° West 237 273 12,100  Level Cleveland Center
08:24AM 42.7456 -77.5114 297° West 233 268 12,100 -484 Level Cleveland Center
08:25AM 42.7658 -77.5539 303° West 236 272 11,600 -885 Descending Cleveland Center
08:25AM 42.7811 -77.5897 300° West 247 284 11,200 -871 Descending Cleveland Center
08:26AM 42.8000 -77.6367 299° West 252 290 10,700 -984 Descending Cleveland Center
08:26AM 42.8172 -77.6772 300° West 260 299 10,200 -1,065 Descending Cleveland Center
08:27AM 42.8308 -77.7222 292° West 253 291 9,600 -1,100 Descending Cleveland Center
08:27AM 42.8361 -77.7686 279° West 248 285 9,100 -1,355 Descending Cleveland Center
08:28AM 42.8403 -77.8372 275° West 262 302 8,200 -1,189 Descending Cleveland Center
08:29AM 42.8542 -77.9369 281° West 261 300 7,000 -1,016 Descending Cleveland Center
08:30AM 42.8631 -78.0383 277° West 260 299 6,100 -1,113 Descending Cleveland Center
08:31AM 42.8683 -78.1419 274° West 262 302 4,700 -1,016 Descending Cleveland Center
08:32AM 42.8792 -78.2353 279° West 262 302 4,000 -339 Descending Cleveland Center
08:33AM 42.8889 -78.3361 278° West 259 298 4,000  Level Cleveland Center
08:34AM 42.8769 -78.4283 260° West 248 285 4,000  Level Cleveland Center
08:35AM 42.8494 -78.5131 246° West 236 272 4,000 -48 Level Cleveland Center
08:36AM 42.8314 -78.5925 253° West 211 243 3,900 -290 Descending Cleveland Center
08:37AM 42.8228 -78.6697 261° West 202 232 3,400 -677 Descending Cleveland Center
08:38AM 42.8547 -78.7236 309° West 182 209 2,500 -821 Descending Cleveland Center
08:39AM 42.8833 -78.7500 326° Northwest 150 173 1,800 -787 Descending Buffalo TRACON
08:40AM 42.9167 -78.7500 360° North 129 148 900 -806 Descending Buffalo TRACON
08:42AM 42.9333 -78.7167 270° West  Level FlightAware Approximate